User: anonymous   Login
Location: Astronight Observatory
(42.6003°N, 71.2981°W)
Time: 07:32:27
(UTC-05:00)
Language:

DELTA 2 R/B (1) - Orbit

View from above orbital plane
View from above orbital plane
View from above satellite
View from above satellite

Ground track
Ground track

The orbit data is extracted from the following two-line orbital elements,

1 27665U 03005C   17054.18057035  .00000036  00000-0  47672-4 0  9999
2 27665  39.5770 330.7624 0009981 247.0424 264.0462 14.28434754734622
Epoch (UTC): 23 February 2017 04:20:01
Eccentricity: 0.0009981
inclination: 39.5770°
perigee height: 790 km
apogee height: 804 km
right ascension of ascending node: 330.7624°
argument of perigee: 247.0424°
revolutions per day: 14.28434754
mean anomaly at epoch: 264.0462°
orbit number at epoch: 73462

The dashed part of the orbit path shows where the satellite is in the earth's shadow,  

DLR